User: anonymous   Login
Location: Observatoire de Paris
(48.8363°N, 2.3365°E)
Time: 06:31:48
(UTC+01:00)
Language:

Transit 4A - Orbit

View from above orbital plane
View from above orbital plane
View from above satellite
View from above satellite

Ground track
Ground track

The orbit data is extracted from the following two-line orbital elements,

1 00116U 61015A   21211.49655443 -.00000059  00000-0  13406-4 0  9991
2 00116  66.8102 290.6910 0068596  82.3738 278.5126 13.91793971 48581
Epoch (UTC): 30 July 2021 11:55:02
Eccentricity: 0.0068596
inclination: 66.8102°
perigee height: 872 km
apogee height: 972 km
right ascension of ascending node: 290.6910°
argument of perigee: 82.3738°
revolutions per day: 13.91793971
mean anomaly at epoch: 278.5126°
orbit number at epoch: 4858

The dashed part of the orbit path shows where the satellite is in the earth's shadow,  

DLR